Location: Powder Track
(41.8531°N, 72.3584°W)
Time: 16:23:52
(UTC+00:00)

Transit 4A - Pass Details

Date: 13 August 2021
Orbit: 871 x 974 km, 66.8° (Epoch: 19 September)

Event Time Altitude Azimuth Distance (km) Brightness Sun altitude
Rises 03:45:41 0° 260° (W) 3,472 11.0 -31.4°
Reaches altitude 10° 03:49:03 10° 279° (W) 2,527 10.4 -31.6°
Maximum altitude 03:52:52 18° 321° (NW) 2,032 10.3 -31.8°
Drops below altitude 10° 03:56:42 10° 2° (N) 2,526 10.9 -32.0°
Sets 04:00:06 0° 22° (NNE) 3,471 11.6 -32.2°
